TimeCDT,TemperatureF,Dew PointF,Humidity,Sea Level PressureIn,VisibilityMPH,Wind Direction,Wind SpeedMPH,Gust SpeedMPH,PrecipitationIn,Events,Conditions,WindDirDegrees,DateUTC
12:07 AM,55.4,51.8,88,30.20,10.0,Calm,Calm,-,N/A,,Overcast,0,2012-10-12 05:07:00
12:42 AM,53.6,51.8,94,30.20,9.0,Calm,Calm,-,N/A,,Overcast,0,2012-10-12 05:42:00
12:54 AM,54.0,52.0,93,30.19,9.0,Calm,Calm,-,N/A,,Overcast,0,2012-10-12 05:54:00
1:23 AM,55.4,51.8,88,30.21,8.0,Calm,Calm,-,N/A,,Overcast,0,2012-10-12 06:23:00
1:54 AM,54.0,52.0,93,30.22,8.0,Calm,Calm,-,N/A,,Overcast,0,2012-10-12 06:54:00
2:54 AM,55.4,51.8,88,30.22,8.0,Calm,Calm,-,N/A,,Overcast,0,2012-10-12 07:54:00
3:25 AM,55.4,53.6,94,30.21,8.0,Calm,Calm,-,N/A,,Overcast,0,2012-10-12 08:25:00
3:54 AM,54.0,52.0,93,30.20,6.0,Calm,Calm,-,N/A,,Overcast,0,2012-10-12 08:54:00
4:45 AM,51.8,50.0,94,30.23,2.5,NNW,3.5,-,N/A,,Scattered Clouds,330,2012-10-12 09:45:00
4:54 AM,53.1,51.1,93,30.24,8.0,North,8.1,-,N/A,,Mostly Cloudy,350,2012-10-12 09:54:00
5:54 AM,52.0,42.1,69,30.26,10.0,NNE,12.7,25.3,N/A,,Overcast,30,2012-10-12 10:54:00
6:54 AM,48.9,39.0,69,30.31,10.0,NE,11.5,-,N/A,,Mostly Cloudy,40,2012-10-12 11:54:00
7:54 AM,48.9,39.0,69,30.32,10.0,NE,8.1,-,N/A,,Scattered Clouds,50,2012-10-12 12:54:00
8:54 AM,51.8,39.2,62,30.35,10.0,NE,12.7,-,N/A,,Scattered Clouds,50,2012-10-12 13:54:00
9:54 AM,52.0,41.0,66,30.37,10.0,ENE,9.2,-,N/A,,Scattered Clouds,70,2012-10-12 14:54:00
10:54 AM,53.1,42.1,66,30.37,10.0,ENE,5.8,-,N/A,,Mostly Cloudy,70,2012-10-12 15:54:00
11:54 AM,57.2,44.6,63,30.36,10.0,NE,9.2,-,N/A,,Mostly Cloudy,50,2012-10-12 16:54:00
12:54 PM,60.1,45.0,57,30.35,10.0,East,8.1,-,N/A,,Mostly Cloudy,100,2012-10-12 17:54:00
1:54 PM,62.1,46.9,58,30.30,10.0,ENE,9.2,-,N/A,,Scattered Clouds,70,2012-10-12 18:54:00
2:54 PM,64.0,46.9,54,30.28,10.0,ENE,8.1,-,N/A,,Scattered Clouds,60,2012-10-12 19:54:00
3:54 PM,64.9,46.9,52,30.27,10.0,ENE,4.6,-,N/A,,Scattered Clouds,60,2012-10-12 20:54:00
4:54 PM,64.4,48.2,56,30.25,10.0,East,8.1,-,N/A,,Scattered Clouds,80,2012-10-12 21:54:00
5:54 PM,62.1,48.0,60,30.24,10.0,East,4.6,-,N/A,,Clear,100,2012-10-12 22:54:00
6:54 PM,57.9,48.9,72,30.24,10.0,Calm,Calm,-,N/A,,Mostly Cloudy,0,2012-10-12 23:54:00
7:54 PM,55.0,48.9,80,30.24,10.0,Calm,Calm,-,N/A,,Clear,0,2012-10-13 00:54:00
8:54 PM,51.8,48.2,88,30.23,10.0,Calm,Calm,-,N/A,,Clear,0,2012-10-13 01:54:00
9:54 PM,51.1,48.0,89,30.23,10.0,Calm,Calm,-,N/A,,Clear,0,2012-10-13 02:54:00
10:54 PM,50.0,46.9,89,30.23,10.0,Calm,Calm,-,N/A,,Clear,0,2012-10-13 03:54:00
11:54 PM,48.9,46.9,93,30.22,9.0,Calm,Calm,-,N/A,,Clear,0,2012-10-13 04:54:00